Location: Ocean City
(38.3360°N, 75.0850°W)
Time: 10:17:44
(UTC-05:00)

Transit 4A - All Passes

Search period start: 22 November 2019 00:00
Search period end: 02 December 2019 00:00
Orbit: 869 x 976 km, 66.8° (Epoch: 21 November)

Date Brightness Start Highest point End Pass type
(mag) Time Alt. Az. Time Alt. Az. Time Alt. Az.
22 Nov - 04:15:30 10° NNE 04:17:47 12° NE 04:20:04 10° ENE visible
22 Nov - 05:59:28 10° NNW 06:05:20 66° ENE 06:11:05 10° SE visible
22 Nov - 07:47:28 10° WNW 07:51:00 17° WSW 07:54:32 10° SW daylight
22 Nov - 19:20:29 10° SE 19:24:35 18° ESE 19:28:38 10° ENE night (unlit)
22 Nov - 21:04:06 10° SW 21:10:21 68° WNW 21:16:29 10° NNE night (unlit)
22 Nov - 22:54:58 10° WNW 22:57:50 13° NW 23:00:42 10° NNW night (unlit)
23 Nov - 04:23:47 10° N 04:27:34 17° NE 04:31:19 10° E visible
23 Nov - 06:08:47 10° NNW 06:14:40 83° WSW 06:20:27 10° SSE visible
23 Nov - 19:28:27 10° SSE 19:33:41 28° ESE 19:38:49 10° NE visible
23 Nov - 21:13:46 10° SW 21:19:46 46° WNW 21:25:40 10° NNE night (unlit)
24 Nov - 04:32:32 10° N 04:37:15 24° NE 04:41:54 10° ESE visible
24 Nov - 06:18:14 10° NW 06:23:55 54° WSW 06:29:33 10° S visible
24 Nov - 19:36:59 10° S 19:42:51 43° ESE 19:48:36 10° NE visible
24 Nov - 21:23:45 10° WSW 21:29:17 32° NW 21:34:44 10° N night (unlit)
25 Nov - 04:41:29 10° NNW 04:46:50 34° NE 04:52:04 10° ESE visible
25 Nov - 06:27:53 10° NW 06:33:06 35° WSW 06:38:16 10° S daylight
25 Nov - 19:45:53 10° SSW 19:52:04 65° ESE 19:58:10 10° NE visible
25 Nov - 21:34:04 10° W 21:38:53 23° NW 21:43:39 10° N night (unlit)
26 Nov - 04:50:36 10° NNW 04:56:19 51° ENE 05:01:56 10° SE visible
26 Nov - 06:37:49 10° WNW 06:42:12 22° WSW 06:46:35 10° SSW daylight
26 Nov - 18:12:57 10° SE 18:15:49 13° ESE 18:18:39 10° ENE visible
26 Nov - 19:55:05 10° SSW 20:01:22 86° WNW 20:07:32 10° NNE visible
26 Nov - 21:44:48 10° W 21:48:35 16° NW 21:52:20 10° N night (unlit)
27 Nov - 03:15:24 10° N 03:18:20 14° NE 03:21:14 10° ENE visible
27 Nov - 04:59:49 10° NNW 05:05:42 76° ENE 05:11:29 10° SSE visible
27 Nov - 06:48:24 10° WNW 06:51:15 14° WSW 06:54:05 10° SW daylight
27 Nov - 18:20:18 10° SSE 18:24:52 21° ESE 18:29:23 10° ENE visible
27 Nov - 20:04:35 10° SW 20:10:45 59° WNW 20:16:48 10° NNE visible
27 Nov - 21:56:17 10° WNW 21:58:23 12° NW 22:00:29 10° NNW night (unlit)
28 Nov - 03:23:55 10° N 03:28:04 19° NE 03:32:11 10° E visible
28 Nov - 05:09:11 10° NNW 05:15:01 72° WSW 05:20:46 10° SSE visible
28 Nov - 18:28:30 10° S 18:33:59 33° ESE 18:39:23 10° NE visible
28 Nov - 20:14:22 10° SW 20:20:12 40° NW 20:25:56 10° NNE visible
29 Nov - 03:32:45 10° N 03:37:43 27° NE 03:42:36 10° ESE visible
29 Nov - 05:18:41 10° NW 05:24:14 46° WSW 05:29:44 10° S visible
29 Nov - 18:37:10 10° S 18:43:10 50° ESE 18:49:04 10° NE visible
29 Nov - 20:24:27 10° WSW 20:29:44 28° NW 20:34:58 10° N visible
30 Nov - 03:41:45 10° NNW 03:47:15 39° NE 03:52:40 10° ESE visible
30 Nov - 05:28:25 10° NW 05:33:24 30° WSW 05:38:19 10° SSW visible
30 Nov - 18:46:11 10° SSW 18:52:26 75° ESE 18:58:33 10° NNE visible
30 Nov - 20:34:54 10° W 20:39:23 20° NW 20:43:49 10° N visible
01 Dec - 02:07:30 10° NNE 02:09:03 11° NE 02:10:36 10° NE visible
01 Dec - 03:50:54 10° NNW 03:56:42 59° ENE 04:02:24 10° SE visible
01 Dec - 05:38:32 10° WNW 05:42:29 19° WSW 05:46:24 10° SSW visible
01 Dec - 17:12:28 10° SE 17:16:05 16° ESE 17:19:40 10° ENE visible
01 Dec - 18:55:30 10° SSW 19:01:46 75° WNW 19:07:53 10° NNE visible
01 Dec - 20:45:51 10° WNW 20:49:07 15° NW 20:52:22 10° N visible
